Weather History for Lynchburg, VA

Change the Weather History Date:

Sunday, August 17, 2014

  Actual Average Record
Temperature  
Mean Temperature 72 °F 74 °F  
Max Temperature 80 °F 85 °F 102 °F (1988)
Min Temperature 64 °F 63 °F 52 °F (1979)
Degree Days  
Heating Degree Days 0 0  
Month to date heating degree days 0 0  
Since 1 June heating degree days 1 15  
Since 1 July heating degree days 0 1  
Cooling Degree Days 7 9  
Month to date cooling degree days 88 167  
Year to date cooling degree days 747 781  
Since 1 June cooling degree days 633 699  
Growing Degree Days 22 (Base 50)    
Moisture  
Dew Point 65 °F    
Average Humidity 81    
Maximum Humidity 100    
Minimum Humidity 62    
Precipitation  
Precipitation T in 0.10 in 2.50 in (1955)
Month to date precipitation 3.45 1.79  
Year to date precipitation 32.66 26.46  
Snow  
Snow 0.00 in - - ()
Month to date snowfall 0.0  
Since 1 June snowfall 0.0  
Since 1 July snowfall 0.0  
Snow Depth 0.00 in    
Sea Level Pressure  
Sea Level Pressure 29.98 in    
Wind  
Wind Speed 1 mph (SW)    
Max Wind Speed 10 mph    
Max Gust Speed 14 mph    
Visibility 10 miles    
Events Rain    
T = Trace of Precipitation, MM = Missing Value Source: NWS Daily Summary

Daily Weather History Graph

Daily Weather History Graph

Search for Another Location

Airport:

Trip Planner

Search our weather history database for the weather conditions in past years. The results will help you decide how hot, cold, wet, or windy it might be!

Date:

Astronomy

Aug. 17, 2014 Rise Set
Actual Time 6:34 AM EDT 8:06 PM EDT
Civil Twilight 6:07 AM EDT 8:33 PM EDT
Nautical Twilight 5:33 AM EDT 9:06 PM EDT
Astronomical Twilight 4:58 AM EDT 9:41 PM EDT
Moon No Moon Rise 2:08 PM EDT (8/17)
Length of Visible Light 14h 26m
Length of Day
13h 31m
Waning Gibbous, 48% of the Moon is Illuminated
Aug 17
Waning Gibbous
Aug 25
New
Sep 2
First Quarter
Sep 8
Full
Sep 15
Last Quarter

Hourly Weather History & Observations

Time (EDT) Temp. Dew Point Humidity Pressure Visibility Wind Dir Wind Speed Gust Speed Precip Events Conditions
12:54 AM 64.9 °F 64.0 °F 97% 30.00 in 10.0 mi Calm Calm - N/A   Clear
1:54 AM 66.0 °F 64.9 °F 96% 29.99 in 10.0 mi Calm Calm - N/A   Overcast
2:54 AM 66.0 °F 63.0 °F 90% 29.98 in 10.0 mi Calm Calm - N/A   Mostly Cloudy
3:54 AM 64.9 °F 61.0 °F 87% 29.98 in 10.0 mi SW 4.6 mph - N/A   Scattered Clouds
4:54 AM 64.9 °F 61.0 °F 87% 29.97 in 10.0 mi SW 3.5 mph - N/A   Scattered Clouds
5:54 AM 66.0 °F 61.0 °F 84% 29.97 in 10.0 mi SW 3.5 mph - 0.00 in Rain Light Rain
6:54 AM 64.9 °F 63.0 °F 93% 29.98 in 10.0 mi Calm Calm - 0.00 in   Partly Cloudy
7:54 AM 66.0 °F 63.0 °F 90% 29.99 in 10.0 mi Calm Calm - N/A   Partly Cloudy
8:54 AM 68.0 °F 63.0 °F 84% 30.00 in 10.0 mi Calm Calm - N/A   Overcast
9:54 AM 70.0 °F 64.0 °F 81% 30.01 in 10.0 mi Calm Calm - N/A   Overcast
10:54 AM 75.0 °F 64.9 °F 71% 30.02 in 10.0 mi SSW 4.6 mph - N/A   Overcast
11:54 AM 77.0 °F 64.0 °F 64% 30.01 in 10.0 mi WSW 4.6 mph - N/A   Scattered Clouds
12:54 PM 77.0 °F 64.0 °F 64% 30.00 in 10.0 mi WSW 5.8 mph - N/A   Overcast
1:54 PM 78.1 °F 64.9 °F 64% 29.99 in 10.0 mi SSW 4.6 mph - N/A   Overcast
2:54 PM 79.0 °F 66.0 °F 64% 29.97 in 10.0 mi Calm Calm - N/A   Overcast
3:54 PM 77.0 °F 66.9 °F 71% 29.96 in 10.0 mi Calm Calm - N/A   Overcast
4:54 PM 78.1 °F 66.9 °F 68% 29.97 in 10.0 mi Calm Calm - N/A   Overcast
5:54 PM 78.8 °F 69.8 °F 74% 29.99 in 10.0 mi Calm Calm - N/A   Overcast
6:54 PM 75.0 °F 66.9 °F 76% 29.96 in 10.0 mi NE 3.5 mph - N/A   Overcast
7:54 PM 73.0 °F 69.1 °F 87% 29.96 in 10.0 mi Calm Calm - N/A   Overcast
8:54 PM 70.0 °F 68.0 °F 93% 29.96 in 10.0 mi Calm Calm - N/A   Mostly Cloudy
9:54 PM 69.8 °F 68.0 °F 94% 29.98 in 10.0 mi Calm Calm - N/A   Partly Cloudy
10:54 PM 68.0 °F 66.9 °F 96% 29.96 in 8.0 mi Calm Calm - N/A   Mostly Cloudy
11:54 PM 68.0 °F 66.9 °F 96% 29.96 in 7.0 mi Calm Calm - N/A   Scattered Clouds